Location: Arpaise
(41.0333°N, 14.7333°E)
Time: 01:30:22
(UTC+00:00)

BREEZE-M DEB (TANK) - Pass Details

Date: 05 July 2020
Orbit: 328 x 12049 km, 49.6° (Epoch: 11 August)

Event Time Altitude Azimuth Distance (km) Brightness Sun altitude
Rises 22:36:22 0° 302° (WNW) 2,996 6.4 -25.9°
Reaches altitude 10° 22:39:17 10° 312° (NW) 1,561 5.0 -26.0°
Enters shadow 22:40:33 19° 326° (NNW) 978 4.0 -26.0°
